Year,Month,Day,Hour,Minute,Value (Times are PST for temperature in C)
2010,07,14,00,00,16.00
2010,07,14,00,01,16.00
2010,07,14,00,02,15.90
2010,07,14,00,03,15.90
2010,07,14,00,04,15.90
2010,07,14,00,05,15.90
2010,07,14,00,06,15.80
2010,07,14,00,07,15.80
2010,07,14,00,08,15.80
2010,07,14,00,09,15.80
2010,07,14,00,10,15.70
2010,07,14,00,11,15.70
2010,07,14,00,12,15.70
2010,07,14,00,13,15.70
2010,07,14,00,14,15.70
2010,07,14,00,15,15.60
2010,07,14,00,16,15.60
2010,07,14,00,17,15.60
2010,07,14,00,18,15.60
2010,07,14,00,19,15.60
2010,07,14,00,20,15.50
2010,07,14,00,21,15.50
2010,07,14,00,22,15.50
2010,07,14,00,23,15.50
2010,07,14,00,24,15.40
2010,07,14,00,25,15.40
2010,07,14,00,26,15.40
2010,07,14,00,27,15.40
2010,07,14,00,28,15.40
2010,07,14,00,29,15.40
2010,07,14,00,30,15.30
2010,07,14,00,31,15.30
2010,07,14,00,32,15.30
2010,07,14,00,33,15.30
2010,07,14,00,34,15.30
2010,07,14,00,35,15.30
2010,07,14,00,36,15.30
2010,07,14,00,37,15.30
2010,07,14,00,38,15.30
2010,07,14,00,39,15.30
2010,07,14,00,40,15.30
2010,07,14,00,41,15.30
2010,07,14,00,42,15.30
2010,07,14,00,43,15.40
2010,07,14,00,44,15.40
2010,07,14,00,45,15.40
2010,07,14,00,46,15.40
2010,07,14,00,47,15.40
2010,07,14,00,48,15.40
2010,07,14,00,49,15.40
2010,07,14,00,50,15.50
2010,07,14,00,51,15.50
2010,07,14,00,52,15.50
2010,07,14,00,53,15.50
2010,07,14,00,54,15.60
2010,07,14,00,55,15.60
2010,07,14,00,56,15.60
2010,07,14,00,57,15.60
2010,07,14,00,58,15.60
2010,07,14,00,59,15.60
2010,07,14,01,00,15.70
2010,07,14,01,01,15.70
2010,07,14,01,02,15.70
2010,07,14,01,03,15.70
2010,07,14,01,04,15.70
2010,07,14,01,05,15.70
2010,07,14,01,06,15.70
2010,07,14,01,07,15.70
2010,07,14,01,08,15.70
2010,07,14,01,09,15.70
2010,07,14,01,10,15.70
2010,07,14,01,11,15.70
2010,07,14,01,12,15.70
2010,07,14,01,13,15.70
2010,07,14,01,14,15.60
2010,07,14,01,15,15.60
2010,07,14,01,16,15.60
2010,07,14,01,17,15.60
2010,07,14,01,18,15.60
2010,07,14,01,19,15.60
2010,07,14,01,20,15.60
2010,07,14,01,21,15.50
2010,07,14,01,22,15.50
2010,07,14,01,23,15.50
2010,07,14,01,24,15.50
2010,07,14,01,25,15.40
2010,07,14,01,26,15.40
2010,07,14,01,27,15.40
2010,07,14,01,28,15.40
2010,07,14,01,29,15.40
2010,07,14,01,30,15.40
2010,07,14,01,31,15.40
2010,07,14,01,32,15.40
2010,07,14,01,33,15.40
2010,07,14,01,34,15.30
2010,07,14,01,35,15.30
2010,07,14,01,36,15.30
2010,07,14,01,37,15.30
2010,07,14,01,38,15.30
2010,07,14,01,39,15.30
2010,07,14,01,40,15.30
2010,07,14,01,41,15.30
2010,07,14,01,42,15.30
2010,07,14,01,43,15.30
2010,07,14,01,44,15.30
2010,07,14,01,45,15.30
2010,07,14,01,46,15.30
2010,07,14,01,47,15.20
2010,07,14,01,48,15.20
2010,07,14,01,49,15.20
2010,07,14,01,50,15.20
2010,07,14,01,51,15.20
2010,07,14,01,52,15.20
2010,07,14,01,53,15.20
2010,07,14,01,54,15.20
2010,07,14,01,55,15.20
2010,07,14,01,56,15.20
2010,07,14,01,57,15.20
2010,07,14,01,58,15.20
2010,07,14,01,59,15.10
2010,07,14,02,00,15.10
2010,07,14,02,01,15.10
2010,07,14,02,02,15.10
2010,07,14,02,03,15.10
2010,07,14,02,04,15.10
2010,07,14,02,05,15.10
2010,07,14,02,06,15.10
2010,07,14,02,07,15.10
2010,07,14,02,08,15.00
2010,07,14,02,09,15.00
2010,07,14,02,10,15.00
2010,07,14,02,11,15.00
2010,07,14,02,12,15.00
2010,07,14,02,13,15.00
2010,07,14,02,14,15.00
2010,07,14,02,15,15.00
2010,07,14,02,16,14.90
2010,07,14,02,17,14.90
2010,07,14,02,18,14.90
2010,07,14,02,19,14.90
2010,07,14,02,20,14.90
2010,07,14,02,21,14.90
2010,07,14,02,22,14.90
2010,07,14,02,23,14.90
2010,07,14,02,24,14.80
2010,07,14,02,25,14.80
2010,07,14,02,26,14.80
2010,07,14,02,27,14.80
2010,07,14,02,28,14.80
2010,07,14,02,29,14.80
2010,07,14,02,30,14.80
2010,07,14,02,31,14.80
2010,07,14,02,32,14.80
2010,07,14,02,33,14.80
2010,07,14,02,34,14.80
2010,07,14,02,35,14.80
2010,07,14,02,36,14.80
2010,07,14,02,37,14.80
2010,07,14,02,38,14.70
2010,07,14,02,39,14.70
2010,07,14,02,40,14.70
2010,07,14,02,41,14.70
2010,07,14,02,42,14.70
2010,07,14,02,43,14.70
2010,07,14,02,44,14.70
2010,07,14,02,45,14.70
2010,07,14,02,46,14.70
2010,07,14,02,47,14.60
2010,07,14,02,48,14.60
2010,07,14,02,49,14.60
2010,07,14,02,50,14.60
2010,07,14,02,51,14.60
2010,07,14,02,52,14.60
2010,07,14,02,53,14.60
2010,07,14,02,54,14.60
2010,07,14,02,55,14.60
2010,07,14,02,56,14.60
2010,07,14,02,57,14.60
2010,07,14,02,58,14.60
2010,07,14,02,59,14.60
2010,07,14,03,00,14.60
2010,07,14,03,01,14.60
2010,07,14,03,02,14.60
2010,07,14,03,03,14.60
2010,07,14,03,04,14.60
2010,07,14,03,05,14.60
2010,07,14,03,06,14.60
2010,07,14,03,07,14.60
2010,07,14,03,08,14.60
2010,07,14,03,09,14.60
2010,07,14,03,10,14.60
2010,07,14,03,11,14.60
2010,07,14,03,12,14.60
2010,07,14,03,13,14.60
2010,07,14,03,14,14.60
2010,07,14,03,15,14.60
2010,07,14,03,16,14.60
2010,07,14,03,17,14.60
2010,07,14,03,18,14.60
2010,07,14,03,19,14.60
2010,07,14,03,20,14.60
2010,07,14,03,21,14.60
2010,07,14,03,22,14.60
2010,07,14,03,23,14.60
2010,07,14,03,24,14.60
2010,07,14,03,25,14.60
2010,07,14,03,26,14.60
2010,07,14,03,27,14.60
2010,07,14,03,28,14.60
2010,07,14,03,29,14.60
2010,07,14,03,30,14.60
2010,07,14,03,31,14.60
2010,07,14,03,32,14.60
2010,07,14,03,33,14.60
2010,07,14,03,34,14.60
2010,07,14,03,35,14.60
2010,07,14,03,36,14.60
2010,07,14,03,37,14.50
2010,07,14,03,38,14.50
2010,07,14,03,39,14.50
2010,07,14,03,40,14.50
2010,07,14,03,41,14.40
2010,07,14,03,42,14.40
2010,07,14,03,43,14.40
2010,07,14,03,44,14.40
2010,07,14,03,45,14.30
2010,07,14,03,46,14.30
2010,07,14,03,47,14.30
2010,07,14,03,48,14.30
2010,07,14,03,49,14.20
2010,07,14,03,50,14.20
2010,07,14,03,51,14.20
2010,07,14,03,52,14.20
2010,07,14,03,53,14.10
2010,07,14,03,54,14.10
2010,07,14,03,55,14.10
2010,07,14,03,56,14.00
2010,07,14,03,57,14.00
2010,07,14,03,58,14.00
2010,07,14,03,59,13.90
2010,07,14,04,00,13.90
2010,07,14,04,01,13.90
2010,07,14,04,02,13.80
2010,07,14,04,03,13.80
2010,07,14,04,04,13.80
2010,07,14,04,05,13.80
2010,07,14,04,06,13.80
2010,07,14,04,07,13.80
2010,07,14,04,08,13.70
2010,07,14,04,09,13.70
2010,07,14,04,10,13.70
2010,07,14,04,11,13.60
2010,07,14,04,12,13.60
2010,07,14,04,13,13.60
2010,07,14,04,14,13.50
2010,07,14,04,15,13.50
2010,07,14,04,16,13.40
2010,07,14,04,17,13.40
2010,07,14,04,18,13.40
2010,07,14,04,19,13.40
2010,07,14,04,20,13.30
2010,07,14,04,21,13.30
2010,07,14,04,22,13.30
2010,07,14,04,23,13.30
2010,07,14,04,24,13.30
2010,07,14,04,25,13.30
2010,07,14,04,26,13.20
2010,07,14,04,27,13.20
2010,07,14,04,28,13.20
2010,07,14,04,29,13.20
2010,07,14,04,30,13.20
2010,07,14,04,31,13.20
2010,07,14,04,32,13.10
2010,07,14,04,33,13.10
2010,07,14,04,34,13.10
2010,07,14,04,35,13.10
2010,07,14,04,36,13.10
2010,07,14,04,37,13.10
2010,07,14,04,38,13.10
2010,07,14,04,39,13.10
2010,07,14,04,40,13.10
2010,07,14,04,41,13.00
2010,07,14,04,42,13.00
2010,07,14,04,43,13.00
2010,07,14,04,44,13.00
2010,07,14,04,45,13.00
2010,07,14,04,46,13.00
2010,07,14,04,47,13.00
2010,07,14,04,48,13.00
2010,07,14,04,49,12.90
2010,07,14,04,50,12.90
2010,07,14,04,51,12.90
2010,07,14,04,52,12.90
2010,07,14,04,53,12.90
2010,07,14,04,54,12.90
2010,07,14,04,55,12.90
2010,07,14,04,56,12.90
2010,07,14,04,57,12.90
2010,07,14,04,58,12.90
2010,07,14,04,59,12.90
2010,07,14,05,00,12.90
2010,07,14,05,01,12.90
2010,07,14,05,02,12.90
2010,07,14,05,03,12.90
2010,07,14,05,04,12.90
2010,07,14,05,05,12.80
2010,07,14,05,06,12.80
2010,07,14,05,07,12.80
2010,07,14,05,08,12.80
2010,07,14,05,09,12.80
2010,07,14,05,10,12.80
2010,07,14,05,11,12.80
2010,07,14,05,12,12.80
2010,07,14,05,13,12.80
2010,07,14,05,14,12.80
2010,07,14,05,15,12.80
2010,07,14,05,16,12.80
2010,07,14,05,17,12.80
2010,07,14,05,18,12.80
2010,07,14,05,19,12.80
2010,07,14,05,20,12.70
2010,07,14,05,21,12.70
2010,07,14,05,22,12.70
2010,07,14,05,23,12.70
2010,07,14,05,24,12.70
2010,07,14,05,25,12.70
2010,07,14,05,26,12.70
2010,07,14,05,27,12.70
2010,07,14,05,28,12.70
2010,07,14,05,29,12.60
2010,07,14,05,30,12.60
2010,07,14,05,31,12.60
2010,07,14,05,32,12.60
2010,07,14,05,33,12.60
2010,07,14,05,34,12.60
2010,07,14,05,35,12.60
2010,07,14,05,36,12.60
2010,07,14,05,37,12.60
2010,07,14,05,38,12.50
2010,07,14,05,39,12.50
2010,07,14,05,40,12.50
2010,07,14,05,41,12.50
2010,07,14,05,42,12.40
2010,07,14,05,43,12.40
2010,07,14,05,44,12.40
2010,07,14,05,45,12.40
2010,07,14,05,46,12.40
2010,07,14,05,47,12.40
2010,07,14,05,48,12.40
2010,07,14,05,49,12.40
2010,07,14,05,50,12.40
2010,07,14,05,51,12.40
2010,07,14,05,52,12.40
2010,07,14,05,53,12.40
2010,07,14,05,54,12.40
2010,07,14,05,55,12.40
2010,07,14,05,56,12.40
2010,07,14,05,57,12.40
2010,07,14,05,58,12.30
2010,07,14,05,59,12.30
2010,07,14,06,00,12.30
2010,07,14,06,01,12.30
2010,07,14,06,02,12.30
2010,07,14,06,03,12.30
2010,07,14,06,04,12.30
2010,07,14,06,05,12.30
2010,07,14,06,06,12.30
2010,07,14,06,07,12.30
2010,07,14,06,08,12.30
2010,07,14,06,09,12.30
2010,07,14,06,10,12.30
2010,07,14,06,11,12.30
2010,07,14,06,12,12.30
2010,07,14,06,13,12.30
2010,07,14,06,14,12.30
2010,07,14,06,15,12.30
2010,07,14,06,16,12.30
2010,07,14,06,17,12.30
2010,07,14,06,18,12.30
2010,07,14,06,19,12.40
2010,07,14,06,20,12.40
2010,07,14,06,21,12.40
2010,07,14,06,22,12.40
2010,07,14,06,23,12.40
2010,07,14,06,24,12.40
2010,07,14,06,25,12.40
2010,07,14,06,26,12.40
2010,07,14,06,27,12.40
2010,07,14,06,28,12.40
2010,07,14,06,29,12.50
2010,07,14,06,30,12.50
2010,07,14,06,31,12.50
2010,07,14,06,32,12.50
2010,07,14,06,33,12.50
2010,07,14,06,34,12.50
2010,07,14,06,35,12.50
2010,07,14,06,36,12.60
2010,07,14,06,37,12.60
2010,07,14,06,38,12.60
2010,07,14,06,39,12.60
2010,07,14,06,40,12.60
2010,07,14,06,41,12.60
2010,07,14,06,42,12.60
2010,07,14,06,43,12.60
2010,07,14,06,44,12.60
2010,07,14,06,45,12.60
2010,07,14,06,46,12.70
2010,07,14,06,47,12.70
2010,07,14,06,48,12.70
2010,07,14,06,49,12.70
2010,07,14,06,50,12.70
2010,07,14,06,51,12.70
2010,07,14,06,52,12.70
2010,07,14,06,53,12.80
2010,07,14,06,54,12.80
2010,07,14,06,55,12.80
2010,07,14,06,56,12.80
2010,07,14,06,57,12.80
2010,07,14,06,58,12.80
2010,07,14,06,59,12.80
2010,07,14,07,00,12.90
2010,07,14,07,01,12.90
2010,07,14,07,02,12.90
2010,07,14,07,03,12.90
2010,07,14,07,04,13.00
2010,07,14,07,05,13.00
2010,07,14,07,06,13.00
2010,07,14,07,07,13.10
2010,07,14,07,08,13.10
2010,07,14,07,09,13.10
2010,07,14,07,10,13.10
2010,07,14,07,11,13.10
2010,07,14,07,12,13.20
2010,07,14,07,13,13.20
2010,07,14,07,14,13.20
2010,07,14,07,15,13.30
2010,07,14,07,16,13.30
2010,07,14,07,17,13.30
2010,07,14,07,18,13.30
2010,07,14,07,19,13.40
2010,07,14,07,20,13.40
2010,07,14,07,21,13.40
2010,07,14,07,22,13.40
2010,07,14,07,23,13.40
2010,07,14,07,24,13.40
2010,07,14,07,25,13.50
2010,07,14,07,26,13.50
2010,07,14,07,27,13.50
2010,07,14,07,28,13.50
2010,07,14,07,29,13.50
2010,07,14,07,30,13.60
2010,07,14,07,31,13.60
2010,07,14,07,32,13.60
2010,07,14,07,33,13.60
2010,07,14,07,34,13.70
2010,07,14,07,35,13.70
2010,07,14,07,36,13.70
2010,07,14,07,37,13.70
2010,07,14,07,38,13.80
2010,07,14,07,39,13.80
2010,07,14,07,40,13.80
2010,07,14,07,41,13.80
2010,07,14,07,42,13.80
2010,07,14,07,43,13.90
2010,07,14,07,44,13.90
2010,07,14,07,45,13.90
2010,07,14,07,46,14.00
2010,07,14,07,47,14.00
2010,07,14,07,48,14.10
2010,07,14,07,49,14.10
2010,07,14,07,50,14.10
2010,07,14,07,51,14.20
2010,07,14,07,52,14.20
2010,07,14,07,53,14.30
2010,07,14,07,54,14.30
2010,07,14,07,55,14.40
2010,07,14,07,56,14.40
2010,07,14,07,57,14.50
2010,07,14,07,58,14.50
2010,07,14,07,59,14.60
2010,07,14,08,00,14.60
2010,07,14,08,01,14.70
2010,07,14,08,02,14.70
2010,07,14,08,03,14.70
2010,07,14,08,04,14.80
2010,07,14,08,05,14.80
2010,07,14,08,06,14.90
2010,07,14,08,07,14.90
2010,07,14,08,08,14.90
2010,07,14,08,09,15.00
2010,07,14,08,10,15.00
2010,07,14,08,11,15.10
2010,07,14,08,12,15.10
2010,07,14,08,13,15.10
2010,07,14,08,14,15.20
2010,07,14,08,15,15.20
2010,07,14,08,16,15.30
2010,07,14,08,17,15.30
2010,07,14,08,18,15.30
2010,07,14,08,19,15.40
2010,07,14,08,20,15.40
2010,07,14,08,21,15.40
2010,07,14,08,22,15.40
2010,07,14,08,23,15.40
2010,07,14,08,24,15.50
2010,07,14,08,25,15.50
2010,07,14,08,26,15.50
2010,07,14,08,27,15.60
2010,07,14,08,28,15.60
2010,07,14,08,29,15.60
2010,07,14,08,30,15.60
2010,07,14,08,31,15.60
2010,07,14,08,32,15.70
2010,07,14,08,33,15.70
2010,07,14,08,34,15.70
2010,07,14,08,35,15.70
2010,07,14,08,36,15.80
2010,07,14,08,37,15.80
2010,07,14,08,38,15.80
2010,07,14,08,39,15.80
2010,07,14,08,40,15.90
2010,07,14,08,41,15.90
2010,07,14,08,42,15.90
2010,07,14,08,43,16.00
2010,07,14,08,44,16.00
2010,07,14,08,45,16.00
2010,07,14,08,46,16.10
2010,07,14,08,47,16.10
2010,07,14,08,48,16.10
2010,07,14,08,49,16.20
2010,07,14,08,50,16.20
2010,07,14,08,51,16.20
2010,07,14,08,52,16.20
2010,07,14,08,53,16.20
2010,07,14,08,54,16.20
2010,07,14,08,55,16.20
2010,07,14,08,56,16.20
2010,07,14,08,57,16.20
2010,07,14,08,58,16.20
2010,07,14,08,59,16.20
2010,07,14,09,00,16.20
2010,07,14,09,01,16.20
2010,07,14,09,02,16.20
2010,07,14,09,03,16.20
2010,07,14,09,04,16.20
2010,07,14,09,05,16.30
2010,07,14,09,06,16.30
2010,07,14,09,07,16.30
2010,07,14,09,08,16.40
2010,07,14,09,09,16.50
2010,07,14,09,10,16.50
2010,07,14,09,11,16.60
2010,07,14,09,12,16.60
2010,07,14,09,13,16.60
2010,07,14,09,14,16.60
2010,07,14,09,15,16.70
2010,07,14,09,16,16.70
2010,07,14,09,17,16.80
2010,07,14,09,18,16.80
2010,07,14,09,19,16.80
2010,07,14,09,20,16.90
2010,07,14,09,21,16.90
2010,07,14,09,22,17.00
2010,07,14,09,23,17.00
2010,07,14,09,24,17.10
2010,07,14,09,25,17.10
2010,07,14,09,26,17.10
2010,07,14,09,27,17.20
2010,07,14,09,28,17.20
2010,07,14,09,29,17.20
2010,07,14,09,30,17.20
2010,07,14,09,31,17.10
2010,07,14,09,32,17.10
2010,07,14,09,33,17.10
2010,07,14,09,34,17.10
2010,07,14,09,35,17.20
2010,07,14,09,36,17.20
2010,07,14,09,37,17.20
2010,07,14,09,38,17.20
2010,07,14,09,39,17.30
2010,07,14,09,40,17.30
2010,07,14,09,41,17.40
2010,07,14,09,42,17.40
2010,07,14,09,43,17.50
2010,07,14,09,44,17.50
2010,07,14,09,45,17.60
2010,07,14,09,46,17.70
2010,07,14,09,47,17.70
2010,07,14,09,48,17.70
2010,07,14,09,49,17.80
2010,07,14,09,50,17.80
2010,07,14,09,51,17.90
2010,07,14,09,52,18.00
2010,07,14,09,53,18.00
2010,07,14,09,54,18.10
2010,07,14,09,55,18.20
2010,07,14,09,56,18.20
2010,07,14,09,57,18.30
2010,07,14,09,58,18.40
2010,07,14,09,59,18.40
2010,07,14,10,00,18.50
2010,07,14,10,01,18.60
2010,07,14,10,02,18.60
2010,07,14,10,03,18.60
2010,07,14,10,04,18.70
2010,07,14,10,05,18.80
2010,07,14,10,06,18.80
2010,07,14,10,07,18.90
2010,07,14,10,08,18.90
2010,07,14,10,09,19.00
2010,07,14,10,10,19.10
2010,07,14,10,11,19.10
2010,07,14,10,12,19.20
2010,07,14,10,13,19.20
2010,07,14,10,14,19.20
2010,07,14,10,15,19.20
2010,07,14,10,16,19.20
2010,07,14,10,17,19.20
2010,07,14,10,18,19.20
2010,07,14,10,19,19.20
2010,07,14,10,20,19.20
2010,07,14,10,21,19.20
2010,07,14,10,22,19.20
2010,07,14,10,23,19.30
2010,07,14,10,24,19.30
2010,07,14,10,25,19.30
2010,07,14,10,26,19.30
2010,07,14,10,27,19.40
2010,07,14,10,28,19.40
2010,07,14,10,29,19.40
2010,07,14,10,30,19.50
2010,07,14,10,31,19.50
2010,07,14,10,32,19.60
2010,07,14,10,33,19.60
2010,07,14,10,34,19.70
2010,07,14,10,35,19.80
2010,07,14,10,36,19.80
2010,07,14,10,37,19.80
2010,07,14,10,38,19.90
2010,07,14,10,39,19.90
2010,07,14,10,40,19.90
2010,07,14,10,41,19.90
2010,07,14,10,42,19.90
2010,07,14,10,43,19.90
2010,07,14,10,44,19.90
2010,07,14,10,45,19.90
2010,07,14,10,46,19.80
2010,07,14,10,47,19.80
2010,07,14,10,48,19.80
2010,07,14,10,49,19.90
2010,07,14,10,50,19.90
2010,07,14,10,51,20.00
2010,07,14,10,52,20.00
2010,07,14,10,53,20.10
2010,07,14,10,54,20.10
2010,07,14,10,55,20.10
2010,07,14,10,56,20.10
2010,07,14,10,57,20.10
2010,07,14,10,58,20.10
2010,07,14,10,59,20.10
2010,07,14,11,00,20.10
2010,07,14,11,01,20.10
2010,07,14,11,02,20.00
2010,07,14,11,03,20.00
2010,07,14,11,04,20.00
2010,07,14,11,05,20.00
2010,07,14,11,06,20.00
2010,07,14,11,07,20.10
2010,07,14,11,08,20.10
2010,07,14,11,09,20.10
2010,07,14,11,10,20.10
2010,07,14,11,11,20.10
2010,07,14,11,12,20.10
2010,07,14,11,13,20.10
2010,07,14,11,14,20.10
2010,07,14,11,15,20.10
2010,07,14,11,16,20.10
2010,07,14,11,17,20.10
2010,07,14,11,18,20.20
2010,07,14,11,19,20.20
2010,07,14,11,20,20.20
2010,07,14,11,21,20.20
2010,07,14,11,22,20.30
2010,07,14,11,23,20.40
2010,07,14,11,24,20.40
2010,07,14,11,25,20.50
2010,07,14,11,26,20.50
2010,07,14,11,27,20.60
2010,07,14,11,28,20.60
2010,07,14,11,29,20.70
2010,07,14,11,30,20.70
2010,07,14,11,31,20.70
2010,07,14,11,32,20.70
2010,07,14,11,33,20.70
2010,07,14,11,34,20.60
2010,07,14,11,35,20.60
2010,07,14,11,36,20.60
2010,07,14,11,37,20.50
2010,07,14,11,38,20.40
2010,07,14,11,39,20.40
2010,07,14,11,40,20.40
2010,07,14,11,41,20.40
2010,07,14,11,42,20.40
2010,07,14,11,43,20.50
2010,07,14,11,44,20.50
2010,07,14,11,45,20.60
2010,07,14,11,46,20.60
2010,07,14,11,47,20.60
2010,07,14,11,48,20.70
2010,07,14,11,49,20.70
2010,07,14,11,50,20.70
2010,07,14,11,51,20.80
2010,07,14,11,52,20.80
2010,07,14,11,53,20.80
2010,07,14,11,54,20.90
2010,07,14,11,55,20.90
2010,07,14,11,56,20.90
2010,07,14,11,57,21.00
2010,07,14,11,58,21.00
2010,07,14,11,59,21.00
2010,07,14,12,00,21.00
2010,07,14,12,01,21.00
2010,07,14,12,02,21.00
2010,07,14,12,03,21.00
2010,07,14,12,04,21.00
2010,07,14,12,05,21.00
2010,07,14,12,14,21.20
2010,07,14,12,15,21.20
2010,07,14,12,16,21.20
2010,07,14,12,17,21.20
2010,07,14,12,18,21.20
2010,07,14,12,19,21.20
2010,07,14,12,20,21.30
2010,07,14,12,21,21.30
2010,07,14,12,22,21.30
2010,07,14,12,23,21.30
2010,07,14,12,24,21.30
2010,07,14,12,25,21.30
2010,07,14,12,26,21.30
2010,07,14,12,27,21.20
2010,07,14,12,28,21.20
2010,07,14,12,29,21.10
2010,07,14,12,30,21.10
2010,07,14,12,31,21.10
2010,07,14,12,32,21.10
2010,07,14,12,33,21.10
2010,07,14,12,34,21.20
2010,07,14,12,35,21.30
2010,07,14,12,36,21.30
2010,07,14,12,37,21.30
2010,07,14,12,38,21.30
2010,07,14,12,39,21.20
2010,07,14,12,40,21.20
2010,07,14,12,41,21.20
2010,07,14,12,42,21.20
2010,07,14,12,43,21.20
2010,07,14,12,44,21.20
2010,07,14,12,45,21.20
2010,07,14,12,46,21.20
2010,07,14,12,47,21.20
2010,07,14,12,48,21.20
2010,07,14,12,49,21.20
2010,07,14,12,50,21.30
2010,07,14,12,51,21.30
2010,07,14,12,52,21.40
2010,07,14,12,53,21.40
2010,07,14,12,54,21.50
2010,07,14,12,55,21.50
2010,07,14,12,56,21.50
2010,07,14,12,57,21.60
2010,07,14,12,58,21.60
2010,07,14,12,59,21.50
2010,07,14,13,00,21.40
2010,07,14,13,01,21.30
2010,07,14,13,02,21.30
2010,07,14,13,03,21.30
2010,07,14,13,04,21.30
2010,07,14,13,05,21.30
2010,07,14,13,06,21.30
2010,07,14,13,07,21.20
2010,07,14,13,08,21.20
2010,07,14,13,09,21.20
2010,07,14,13,10,21.20
2010,07,14,13,11,21.20
2010,07,14,13,12,21.20
2010,07,14,13,13,21.20
2010,07,14,13,14,21.20
2010,07,14,13,15,21.20
2010,07,14,13,16,21.20
2010,07,14,13,17,21.20
2010,07,14,13,18,21.10
2010,07,14,13,19,21.20
2010,07,14,13,20,21.20
2010,07,14,13,21,21.20
2010,07,14,13,22,21.10
2010,07,14,13,23,21.10
2010,07,14,13,24,21.00
2010,07,14,13,25,21.00
2010,07,14,13,26,21.00
2010,07,14,13,27,21.00
2010,07,14,13,28,21.00
2010,07,14,13,29,21.00
2010,07,14,13,30,21.00
2010,07,14,13,31,21.10
2010,07,14,13,32,21.10
2010,07,14,13,33,21.10
2010,07,14,13,34,21.00
2010,07,14,13,35,21.00
2010,07,14,13,36,20.90
2010,07,14,13,37,20.80
2010,07,14,13,38,20.80
2010,07,14,13,39,20.80
2010,07,14,13,40,20.80
2010,07,14,13,41,20.80
2010,07,14,13,42,20.70
2010,07,14,13,43,20.70
2010,07,14,13,44,20.60
2010,07,14,13,45,20.60
2010,07,14,13,46,20.60
2010,07,14,13,47,20.60
2010,07,14,13,48,20.70
2010,07,14,13,49,20.70
2010,07,14,13,50,20.70
2010,07,14,13,51,20.70
2010,07,14,13,52,20.70
2010,07,14,13,53,20.70
2010,07,14,13,54,20.60
2010,07,14,13,55,20.60
2010,07,14,13,56,20.60
2010,07,14,13,57,20.70
2010,07,14,13,58,20.80
2010,07,14,13,59,20.80
2010,07,14,14,00,20.90
2010,07,14,14,01,21.00
2010,07,14,14,02,21.10
2010,07,14,14,03,21.20
2010,07,14,14,04,21.40
2010,07,14,14,05,21.40
2010,07,14,14,06,21.40
2010,07,14,14,07,21.40
2010,07,14,14,08,21.30
2010,07,14,14,09,21.30
2010,07,14,14,10,21.30
2010,07,14,14,11,21.30
2010,07,14,14,12,21.40
2010,07,14,14,13,21.40
2010,07,14,14,14,21.50
2010,07,14,14,15,21.50
2010,07,14,14,16,21.50
2010,07,14,14,17,21.40
2010,07,14,14,18,21.40
2010,07,14,14,19,21.40
2010,07,14,14,20,21.40
2010,07,14,14,21,21.40
2010,07,14,14,22,21.40
2010,07,14,14,23,21.50
2010,07,14,14,24,21.50
2010,07,14,14,25,21.60
2010,07,14,14,26,21.60
2010,07,14,14,27,21.70
2010,07,14,14,28,21.80
2010,07,14,14,29,21.90
2010,07,14,14,30,21.90
2010,07,14,14,31,22.00
2010,07,14,14,32,22.00
2010,07,14,14,33,22.00
2010,07,14,14,34,22.00
2010,07,14,14,35,22.00
2010,07,14,14,36,22.00
2010,07,14,14,37,21.90
2010,07,14,14,38,21.90
2010,07,14,14,39,21.80
2010,07,14,14,40,21.80
2010,07,14,14,41,21.80
2010,07,14,14,42,21.80
2010,07,14,14,43,21.80
2010,07,14,14,44,21.80
2010,07,14,14,45,21.80
2010,07,14,14,46,21.80
2010,07,14,14,47,21.80
2010,07,14,14,48,21.70
2010,07,14,14,49,21.60
2010,07,14,14,50,21.60
2010,07,14,14,51,21.60
2010,07,14,14,52,21.60
2010,07,14,14,53,21.60
2010,07,14,14,54,21.60
2010,07,14,14,55,21.50
2010,07,14,14,56,21.50
2010,07,14,14,57,21.40
2010,07,14,14,58,21.40
2010,07,14,14,59,21.30
2010,07,14,15,00,21.30
2010,07,14,15,01,21.30
2010,07,14,15,02,21.30
2010,07,14,15,03,21.40
2010,07,14,15,04,21.50
2010,07,14,15,05,21.50
2010,07,14,15,06,21.60
2010,07,14,15,07,21.70
2010,07,14,15,08,21.70
2010,07,14,15,09,21.80
2010,07,14,15,10,21.80
2010,07,14,15,11,21.90
2010,07,14,15,12,21.90
2010,07,14,15,13,22.00
2010,07,14,15,14,22.00
2010,07,14,15,15,21.90
2010,07,14,15,16,21.80
2010,07,14,15,17,21.70
2010,07,14,15,18,21.60
2010,07,14,15,19,21.50
2010,07,14,15,20,21.50
2010,07,14,15,21,21.50
2010,07,14,15,22,21.50
2010,07,14,15,23,21.60
2010,07,14,15,24,21.60
2010,07,14,15,25,21.60
2010,07,14,15,26,21.60
2010,07,14,15,27,21.60
2010,07,14,15,28,21.60
2010,07,14,15,29,21.70
2010,07,14,15,30,21.70
2010,07,14,15,31,21.70
2010,07,14,15,32,21.70
2010,07,14,15,33,21.70
2010,07,14,15,34,21.70
2010,07,14,15,35,21.60
2010,07,14,15,36,21.70
2010,07,14,15,37,21.70
2010,07,14,15,38,21.70
2010,07,14,15,39,21.70
2010,07,14,15,40,21.70
2010,07,14,15,41,21.80
2010,07,14,15,42,21.80
2010,07,14,15,43,21.80
2010,07,14,15,44,21.90
2010,07,14,15,45,22.00
2010,07,14,15,46,22.00
2010,07,14,15,47,22.10
2010,07,14,15,48,22.10
2010,07,14,15,49,22.20
2010,07,14,15,50,22.20
2010,07,14,15,51,22.20
2010,07,14,15,52,22.20
2010,07,14,15,53,22.10
2010,07,14,15,54,22.00
2010,07,14,15,55,21.90
2010,07,14,15,56,21.80
2010,07,14,15,57,21.70
2010,07,14,15,58,21.70
2010,07,14,15,59,21.70
2010,07,14,16,00,21.70
2010,07,14,16,01,21.70
2010,07,14,16,02,21.70
2010,07,14,16,03,21.70
2010,07,14,16,04,21.80
2010,07,14,16,05,21.80
2010,07,14,16,06,21.90
2010,07,14,16,07,21.90
2010,07,14,16,08,22.00
2010,07,14,16,09,22.10
2010,07,14,16,10,22.20
2010,07,14,16,11,22.20
2010,07,14,16,12,22.20
2010,07,14,16,13,22.20
2010,07,14,16,14,22.20
2010,07,14,16,15,22.30
2010,07,14,16,16,22.30
2010,07,14,16,17,22.30
2010,07,14,16,18,22.30
2010,07,14,16,19,22.30
2010,07,14,16,20,22.30
2010,07,14,16,21,22.30
2010,07,14,16,22,22.30
2010,07,14,16,23,22.30
2010,07,14,16,24,22.30
2010,07,14,16,25,22.30
2010,07,14,16,26,22.30
2010,07,14,16,27,22.30
2010,07,14,16,28,22.30
2010,07,14,16,29,22.30
2010,07,14,16,30,22.30
2010,07,14,16,31,22.30
2010,07,14,16,32,22.30
2010,07,14,16,33,22.30
2010,07,14,16,34,22.40
2010,07,14,16,35,22.50
2010,07,14,16,36,22.50
2010,07,14,16,37,22.60
2010,07,14,16,38,22.60
2010,07,14,16,39,22.50
2010,07,14,16,40,22.40
2010,07,14,16,41,22.30
2010,07,14,16,42,22.30
2010,07,14,16,43,22.20
2010,07,14,16,44,22.20
2010,07,14,16,45,22.10
2010,07,14,16,46,22.00
2010,07,14,16,47,22.00
2010,07,14,16,48,22.00
2010,07,14,16,49,22.00
2010,07,14,16,50,22.00
2010,07,14,16,51,21.90
2010,07,14,16,52,21.90
2010,07,14,16,53,21.90
2010,07,14,16,54,21.90
2010,07,14,16,55,21.90
2010,07,14,16,56,22.00
2010,07,14,16,57,22.00
2010,07,14,16,58,22.10
2010,07,14,16,59,22.10
2010,07,14,17,00,22.20
2010,07,14,17,01,22.20
2010,07,14,17,02,22.20
2010,07,14,17,03,22.30
2010,07,14,17,04,22.30
2010,07,14,17,05,22.30
2010,07,14,17,06,22.20
2010,07,14,17,07,22.20
2010,07,14,17,08,22.10
2010,07,14,17,09,22.10
2010,07,14,17,10,22.10
2010,07,14,17,11,22.00
2010,07,14,17,12,22.00
2010,07,14,17,13,21.90
2010,07,14,17,14,22.00
2010,07,14,17,15,22.00
2010,07,14,17,16,22.10
2010,07,14,17,17,22.20
2010,07,14,17,18,22.20
2010,07,14,17,19,22.20
2010,07,14,17,20,22.20
2010,07,14,17,21,22.20
2010,07,14,17,22,22.20
2010,07,14,17,23,22.10
2010,07,14,17,24,22.00
2010,07,14,17,25,22.00
2010,07,14,17,26,22.00
2010,07,14,17,27,22.00